ACA112 CYVR-CYYZ

Flight info

Callsign ACA112
Flight time N/A
Altitude 35000
Route ALNOD DCT IKNIX DCT AXILI DCT EMLIK DCT OTLUR DCT AGLIN DCT OTNIK BOXUM7
Aircraft B77W/H-SDE1E2E3FGHIJ2J3J4J5M1RWXY/LB1D1

Departure

Time 2026-05-03 22:45
Airport Vancouver International Airport (CYVR)

Arrival

Time N/A
Airport Toronto Pearson International Airport (CYYZ)
Time Latitude Longitude Altitude Speed Heading
2026-05-03 22:01 49.19576 -123.18037 27 ft 0 kts 154°
2026-05-03 22:25 49.19577 -123.18038 28 ft 2 kts 154°
2026-05-03 22:25 49.19592 -123.18049 28 ft 2 kts 154°
2026-05-03 22:25 49.19607 -123.18059 28 ft 2 kts 155°
2026-05-03 22:26 49.19622 -123.18067 28 ft 2 kts 177°
2026-05-03 22:26 49.19638 -123.18064 28 ft 2 kts 204°
2026-05-03 22:26 49.19651 -123.18051 28 ft 2 kts 231°
2026-05-03 22:26 49.19654 -123.18044 28 ft 0 kts 234°
2026-05-03 22:27 49.19654 -123.18045 28 ft 0 kts 234°
2026-05-03 22:31 49.19648 -123.18057 28 ft 2 kts 236°
2026-05-03 22:31 49.19641 -123.18079 28 ft 2 kts 248°
2026-05-03 22:31 49.19636 -123.18118 28 ft 5 kts 266°
2026-05-03 22:31 49.19648 -123.18180 28 ft 7 kts 301°
2026-05-03 22:32 49.19671 -123.18244 28 ft 7 kts 290°
2026-05-03 22:32 49.19681 -123.18304 28 ft 5 kts 281°
2026-05-03 22:32 49.19689 -123.18371 28 ft 6 kts 281°
2026-05-03 22:32 49.19695 -123.18421 28 ft 2 kts 279°
2026-05-03 22:33 49.19698 -123.18444 28 ft 1 kts 280°
2026-05-03 22:33 49.19699 -123.18453 28 ft 0 kts 280°
2026-05-03 22:34 49.19699 -123.18456 28 ft 1 kts 280°
2026-05-03 22:34 49.19700 -123.18457 28 ft 0 kts 280°
2026-05-03 22:35 49.19700 -123.18458 28 ft 0 kts 280°
2026-05-03 22:35 49.19701 -123.18470 28 ft 3 kts 280°
2026-05-03 22:36 49.19708 -123.18535 28 ft 7 kts 280°
2026-05-03 22:36 49.19718 -123.18585 28 ft 8 kts 294°
2026-05-03 22:36 49.19742 -123.18677 28 ft 11 kts 286°
2026-05-03 22:36 49.19757 -123.18780 28 ft 9 kts 281°
2026-05-03 22:37 49.19770 -123.18885 28 ft 9 kts 279°
2026-05-03 22:37 49.19782 -123.18993 28 ft 11 kts 279°
2026-05-03 22:37 49.19782 -123.19082 28 ft 8 kts 245°
2026-05-03 22:37 49.19728 -123.19139 28 ft 11 kts 193°
2026-05-03 22:38 49.19645 -123.19161 28 ft 13 kts 189°
2026-05-03 22:38 49.19578 -123.19164 28 ft 10 kts 168°
2026-05-03 22:38 49.19505 -123.19102 28 ft 13 kts 142°
2026-05-03 22:38 49.19430 -123.19012 28 ft 14 kts 141°
2026-05-03 22:39 49.19344 -123.18909 28 ft 18 kts 141°
2026-05-03 22:39 49.19254 -123.18800 28 ft 17 kts 142°
2026-05-03 22:39 49.19157 -123.18682 28 ft 19 kts 142°
2026-05-03 22:39 49.19063 -123.18571 28 ft 16 kts 144°
2026-05-03 22:40 49.18984 -123.18476 28 ft 14 kts 135°
2026-05-03 22:40 49.18941 -123.18319 28 ft 18 kts 98°
2026-05-03 22:40 49.18925 -123.18172 28 ft 14 kts 100°
2026-05-03 22:40 49.18906 -123.18009 28 ft 18 kts 100°
2026-05-03 22:41 49.18882 -123.17800 28 ft 22 kts 100°
2026-05-03 22:41 49.18853 -123.17553 28 ft 25 kts 100°
2026-05-03 22:41 49.18827 -123.17306 28 ft 24 kts 99°
2026-05-03 22:41 49.18799 -123.17062 28 ft 23 kts 101°
2026-05-03 22:42 49.18770 -123.16818 28 ft 23 kts 98°
2026-05-03 22:42 49.18749 -123.16623 28 ft 18 kts 99°
2026-05-03 22:42 49.18730 -123.16450 28 ft 15 kts 100°
2026-05-03 22:42 49.18706 -123.16322 28 ft 9 kts 116°
2026-05-03 22:43 49.18659 -123.16230 28 ft 12 kts 127°
2026-05-03 22:43 49.18630 -123.16108 28 ft 7 kts 105°
2026-05-03 22:43 49.18610 -123.16059 28 ft 2 kts 139°
2026-05-03 22:43 49.18598 -123.16049 28 ft 1 kts 156°
2026-05-03 22:44 49.18588 -123.16044 28 ft 3 kts 166°
2026-05-03 22:44 49.18550 -123.16042 28 ft 8 kts 189°
2026-05-03 22:44 49.18492 -123.16078 28 ft 10 kts 230°
2026-05-03 22:44 49.18492 -123.16264 28 ft 29 kts 281°
2026-05-03 22:45 49.18551 -123.16786 28 ft 75 kts 279°
2026-05-03 22:45 49.18698 -123.18071 28 ft 169 kts 281°
2026-05-03 22:45 49.18931 -123.20184 294 ft 226 kts 278°
2026-05-03 22:45 49.19197 -123.22707 1183 ft 257 kts 281°
2026-05-03 22:46 49.19506 -123.25391 2424 ft 251 kts 278°
2026-05-03 22:46 49.19697 -123.28109 3211 ft 268 kts 276°
2026-05-03 22:46 49.19925 -123.31004 4034 ft 273 kts 277°
2026-05-03 22:46 49.19998 -123.33812 5386 ft 261 kts 269°
2026-05-03 22:47 49.19867 -123.36641 6206 ft 273 kts 265°
2026-05-03 22:47 49.19659 -123.39555 7094 ft 279 kts 263°
2026-05-03 22:47 49.19422 -123.42520 8025 ft 283 kts 263°
2026-05-03 22:47 49.19172 -123.45546 8898 ft 289 kts 261°
2026-05-03 22:48 49.18535 -123.48455 9688 ft 295 kts 239°
2026-05-03 22:48 49.17131 -123.50750 10476 ft 302 kts 215°
2026-05-03 22:48 49.15149 -123.52072 11011 ft 318 kts 193°
2026-05-03 22:48 49.12895 -123.52213 11455 ft 336 kts 172°
2026-05-03 22:49 49.10634 -123.51034 11892 ft 354 kts 152°
2026-05-03 22:49 49.08619 -123.48762 12359 ft 370 kts 136°
2026-05-03 22:49 49.06965 -123.45682 12939 ft 381 kts 122°
2026-05-03 22:49 49.05724 -123.42068 13610 ft 390 kts 111°
2026-05-03 22:50 49.04941 -123.38121 14374 ft 394 kts 101°
2026-05-03 22:50 49.04502 -123.34102 15142 ft 399 kts 97°
2026-05-03 22:50 49.04133 -123.29893 15807 ft 403 kts 96°
2026-05-03 22:50 49.03765 -123.25669 16014 ft 405 kts 96°
2026-05-03 22:51 49.03389 -123.21406 16025 ft 407 kts 96°
2026-05-03 22:51 49.03038 -123.17112 16693 ft 410 kts 93°
2026-05-03 22:51 49.02937 -123.12764 17434 ft 413 kts 89°
2026-05-03 22:51 49.02952 -123.08369 18172 ft 416 kts 87°
2026-05-03 22:52 49.03019 -123.03949 18899 ft 420 kts 86°
2026-05-03 22:52 49.03110 -122.99420 19591 ft 424 kts 86°
2026-05-03 22:52 49.03202 -122.94925 20253 ft 428 kts 86°
2026-05-03 22:52 49.03292 -122.90362 20894 ft 433 kts 86°
2026-05-03 22:53 49.03381 -122.85757 21525 ft 436 kts 86°
2026-05-03 22:53 49.03467 -122.81123 22135 ft 441 kts 86°
2026-05-03 22:53 49.03552 -122.76450 22733 ft 444 kts 86°
2026-05-03 22:53 49.03637 -122.71733 23307 ft 448 kts 86°
2026-05-03 22:54 49.03720 -122.66964 23863 ft 451 kts 86°
2026-05-03 22:54 49.03801 -122.62175 24406 ft 455 kts 86°
2026-05-03 22:54 49.03881 -122.57349 24960 ft 458 kts 86°
2026-05-03 22:54 49.03960 -122.52480 25476 ft 461 kts 86°
2026-05-03 22:55 49.04037 -122.47581 25985 ft 464 kts 86°
2026-05-03 22:55 49.04113 -122.42655 26492 ft 467 kts 86°
2026-05-03 22:55 49.04187 -122.37711 26970 ft 470 kts 87°
2026-05-03 22:55 49.04259 -122.32715 27438 ft 473 kts 86°
2026-05-03 22:56 49.04330 -122.27699 27883 ft 476 kts 86°
2026-05-03 22:56 49.04399 -122.22657 28313 ft 478 kts 87°
2026-05-03 22:56 49.04467 -122.17575 28738 ft 481 kts 87°
2026-05-03 22:56 49.04544 -122.12465 29134 ft 483 kts 86°
2026-05-03 22:57 49.04655 -122.07345 29522 ft 486 kts 86°
2026-05-03 22:57 49.04740 -122.02195 29910 ft 487 kts 86°
2026-05-03 22:57 49.04799 -121.97035 30408 ft 486 kts 87°
2026-05-03 22:57 49.04847 -121.91906 30995 ft 482 kts 87°
2026-05-03 22:58 49.04894 -121.86815 31529 ft 480 kts 86°
2026-05-03 22:58 49.04941 -121.81745 32009 ft 478 kts 86°
2026-05-03 22:58 49.04988 -121.76694 32449 ft 477 kts 86°
2026-05-03 22:58 49.05036 -121.71666 32921 ft 474 kts 86°
2026-05-03 22:59 49.05099 -121.66662 33353 ft 472 kts 85°
2026-05-03 22:59 49.05322 -121.61699 33766 ft 468 kts 81°
2026-05-03 22:59 49.05694 -121.56787 34196 ft 465 kts 79°
2026-05-03 22:59 49.06157 -121.51910 34498 ft 465 kts 78°
2026-05-03 23:00 49.06654 -121.47051 34833 ft 464 kts 78°
2026-05-03 23:00 49.07142 -121.42118 34990 ft 467 kts 78°
2026-05-03 23:00 49.07602 -121.37230 35348 ft 465 kts 79°
2026-05-03 23:00 49.08044 -121.32370 35760 ft 462 kts 79°
2026-05-03 23:01 49.08474 -121.27538 36131 ft 460 kts 79°
2026-05-03 23:01 49.08897 -121.22706 36367 ft 460 kts 79°
2026-05-03 23:01 49.09316 -121.17873 36653 ft 459 kts 79°
2026-05-03 23:01 49.09734 -121.13048 36892 ft 460 kts 79°
2026-05-03 23:02 49.10187 -121.08236 36939 ft 460 kts 78°
2026-05-03 23:02 49.11089 -120.98587 36934 ft 460 kts 79°
2026-05-03 23:03 49.11945 -120.88929 36944 ft 460 kts 79°
2026-05-03 23:03 49.12779 -120.79256 36948 ft 461 kts 79°
2026-05-03 23:04 49.13608 -120.69500 36952 ft 462 kts 79°
2026-05-03 23:04 49.14416 -120.59883 36956 ft 462 kts 79°
2026-05-03 23:05 49.15233 -120.50061 36959 ft 462 kts 79°
2026-05-03 23:05 49.16033 -120.40324 36964 ft 463 kts 79°
2026-05-03 23:06 49.16827 -120.30571 36962 ft 463 kts 79°
2026-05-03 23:06 49.17612 -120.20811 36958 ft 464 kts 79°
2026-05-03 23:07 49.18397 -120.10967 36957 ft 464 kts 80°
2026-05-03 23:07 49.19166 -120.01195 36947 ft 464 kts 80°
2026-05-03 23:08 49.19930 -119.91383 36943 ft 466 kts 80°
2026-05-03 23:08 49.20688 -119.81538 36939 ft 468 kts 80°
2026-05-03 23:09 49.21443 -119.71678 36935 ft 468 kts 80°
2026-05-03 23:09 49.22238 -119.61827 36933 ft 467 kts 80°
2026-05-03 23:10 49.22962 -119.51962 36929 ft 467 kts 81°
2026-05-03 23:10 49.23670 -119.42039 36928 ft 468 kts 81°
2026-05-03 23:11 49.24372 -119.32147 36926 ft 468 kts 81°
2026-05-03 23:11 49.25086 -119.22250 36928 ft 468 kts 79°
2026-05-03 23:12 49.26146 -119.12435 36924 ft 468 kts 76°
2026-05-03 23:12 49.27404 -119.02607 36923 ft 468 kts 76°
2026-05-03 23:13 49.28601 -118.92834 36922 ft 468 kts 77°
2026-05-03 23:13 49.29758 -118.83041 36921 ft 468 kts 77°
2026-05-03 23:14 49.30897 -118.73226 36902 ft 469 kts 77°
2026-05-03 23:14 49.32095 -118.63430 36899 ft 469 kts 76°
2026-05-03 23:15 49.33293 -118.53623 36897 ft 469 kts 77°
2026-05-03 23:15 49.34461 -118.43716 36895 ft 470 kts 77°
2026-05-03 23:16 49.35602 -118.33870 36895 ft 470 kts 77°
2026-05-03 23:16 49.36731 -118.24005 36890 ft 470 kts 77°
2026-05-03 23:17 49.37851 -118.14119 36887 ft 471 kts 77°
2026-05-03 23:17 49.38961 -118.04235 36886 ft 471 kts 77°
2026-05-03 23:18 49.40063 -117.94340 36884 ft 471 kts 77°
2026-05-03 23:18 49.41159 -117.84421 36882 ft 472 kts 77°